Location: Cluj-Napoca
(46.7712°N, 23.6236°E)
Time: 19:19:47
(UTC+02:00)

RS-44 - Visible Passes

Search period start: 03 December 2021 00:00
Search period end: 13 December 2021 00:00
Orbit: 1174 x 1511 km, 82.5° (Epoch: 02 December)

Date Brightness Start Highest point End Pass type
(mag) Time Alt. Az. Time Alt. Az. Time Alt. Az.
03 Dec ? 05:11:52 10° NNE 05:17:29 22° ENE 05:23:19 10° ESE visible
03 Dec ? 07:04:17 10° N 07:11:51 85° W 07:19:58 10° S visible
03 Dec ? 19:46:42 10° S 19:50:12 31° S 19:50:12 31° S visible
03 Dec ? 21:42:43 10° WSW 21:56:21 - N 21:42:53 11° WSW visible
04 Dec ? 05:35:04 10° N 05:41:45 33° ENE 05:48:49 10° SE visible
04 Dec ? 18:19:49 10° SE 18:22:34 18° ESE 18:22:34 18° ESE visible
04 Dec ? 20:10:28 10° SSW 20:27:10 - N 20:15:16 45° SSW visible
04 Dec?22:19:43N22:19:43N22:07:58Wvisible
05 Dec ? 04:09:40 10° NE 04:10:17 10° NE 04:10:53 10° NE visible
05 Dec ? 05:58:31 10° N 06:05:50 49° ENE 06:13:39 10° SSE visible
05 Dec ? 18:42:03 10° SSE 18:47:46 34° E 18:47:46 34° E visible
05 Dec ? 20:34:43 10° SW 20:50:26 - N 20:40:28 44° W visible
06 Dec ? 04:30:24 10° NNE 04:34:56 16° ENE 04:39:36 10° E visible
06 Dec ? 06:22:09 10° N 06:29:47 73° E 06:37:58 10° SSE visible
06 Dec ? 19:04:56 10° SSE 19:11:55 55° E 19:13:11 49° ENE visible
06 Dec ? 20:59:30 10° SW 21:05:44 31° WNW 21:05:55 31° WNW visible
07 Dec ? 04:53:17 10° N 04:59:22 25° ENE 05:05:43 10° ESE visible
07 Dec ? 06:45:56 10° NNW 06:53:35 78° W 07:01:49 10° S visible
07 Dec ? 17:39:31 10° ESE 17:43:21 15° ENE 17:46:16 12° NE visible
07 Dec ? 19:28:21 10° S 19:35:34 84° E 19:39:04 34° NNE visible
07 Dec ? 21:24:55 10° WSW 21:30:01 20° WNW 21:31:52 19° NW visible
08 Dec ? 05:16:35 10° N 05:23:35 37° ENE 05:31:02 10° SE visible
08 Dec ? 07:09:52 10° NNW 07:17:16 52° W 07:25:10 10° SSW visible
08 Dec ? 18:01:01 10° SE 18:06:35 25° E 18:12:10 10° NNE visible
08 Dec ? 19:52:15 10° SSW 19:59:22 65° WNW 20:06:35 10° N visible
08 Dec ? 21:51:24 10° W 21:54:33 13° NW 21:57:43 10° NNW visible
09 Dec ? 03:49:32 10° NNE 03:52:16 12° NE 03:55:03 10° ENE visible
09 Dec ? 05:40:05 10° N 05:47:39 55° ENE 05:55:44 10° SSE visible
09 Dec ? 18:23:27 10° SSE 18:29:58 39° E 18:36:33 10° NNE visible
09 Dec ? 20:16:37 10° SW 20:23:21 42° WNW 20:30:12 10° N visible
10 Dec ? 04:11:41 10° NNE 04:16:52 19° ENE 04:22:15 10° E visible
10 Dec ? 06:03:46 10° N 06:11:33 81° E 06:19:55 10° SSE visible
10 Dec ? 18:46:29 10° S 18:53:31 61° E 19:00:38 10° NNE visible
10 Dec ? 20:41:32 10° WSW 20:47:31 28° WNW 20:53:36 10° N visible
11 Dec ? 04:34:44 10° N 04:41:15 28° ENE 04:48:06 10° ESE visible
11 Dec ? 06:27:36 10° NNW 06:35:20 71° W 06:43:38 10° S visible
11 Dec ? 17:20:28 10° ESE 17:24:52 18° ENE 17:29:18 10° NE visible
11 Dec ? 19:10:02 10° S 19:17:12 88° W 19:24:32 10° N visible
11 Dec ? 21:07:08 10° W 21:11:53 18° WNW 21:16:41 10° NNW visible
12 Dec ? 04:58:07 10° N 05:05:27 42° ENE 05:13:13 10° SE visible
12 Dec ? 06:51:35 10° NNW 06:58:58 47° W 07:06:52 10° SSW visible
12 Dec ? 17:42:16 10° SE 17:48:08 28° E 17:54:04 10° NNE visible
12 Dec ? 19:34:02 10° SSW 19:41:03 58° WNW 19:48:16 10° N visible
12 Dec ? 21:34:06 10° WNW 21:36:27 12° NW 21:38:50 10° NNW visible
